Weather History for Alexandria Esle, LA

Change the Weather History Date:

Monday, April 22, 2013

  Actual Average Record
Temperature  
Mean Temperature 62 °F -  
Max Temperature 80 °F 81 °F 91 °F (2009)
Min Temperature 44 °F 58 °F 40 °F (1993)
Degree Days  
Heating Degree Days 3    
Growing Degree Days 12 (Base 50)    
Moisture  
Dew Point 47 °F    
Average Humidity 65    
Maximum Humidity 93    
Minimum Humidity 29    
Precipitation  
Precipitation 0.00 in - - ()
Sea Level Pressure  
Sea Level Pressure 30.08 in    
Wind  
Wind Speed 1 mph (SE)    
Max Wind Speed 8 mph    
Max Gust Speed -    
Visibility 10 miles    
Events      
Averages and records for this station are not official NWS values.
T = Trace of Precipitation, MM = Missing Value Source: NWS Daily Summary

Daily Weather History Graph

Daily Weather History Graph

Search for Another Location

Airport:

Trip Planner

Search our weather history database for the weather conditions in past years. The results will help you decide how hot, cold, wet, or windy it might be!

Date:

Astronomy

Apr. 22, 2013 Rise Set
Actual Time 6:32 AM CDT 7:42 PM CDT
Civil Twilight 6:07 AM CDT 8:08 PM CDT
Nautical Twilight 5:37 AM CDT 8:38 PM CDT
Astronomical Twilight 5:06 AM CDT 9:09 PM CDT
Moon 4:42 PM CDT (4/22) 4:15 AM CDT (4/22)
Length of Visible Light 14h 00m
Length of Day
13h 09m
Waxing Gibbous, 88% of the Moon is Illuminated
Apr 22
Waxing Gibbous
Apr 25
Full
May 2
Last Quarter
May 9
New
May 17
First Quarter

Hourly Weather History & Observations

Time (CDT) Temp. Dew Point Humidity Pressure Visibility Wind Dir Wind Speed Gust Speed Precip Events Conditions
12:53 AM 48.0 °F 45.0 °F 89% 30.14 in 10.0 mi Calm Calm - N/A   Clear
1:53 AM 46.9 °F 45.0 °F 93% 30.14 in 10.0 mi Calm Calm - N/A   Clear
2:53 AM 46.0 °F 43.0 °F 89% 30.12 in 10.0 mi Calm Calm - N/A   Clear
3:53 AM 46.0 °F 43.0 °F 89% 30.12 in 9.0 mi Calm Calm - N/A   Clear
4:53 AM 45.0 °F 43.0 °F 93% 30.12 in 10.0 mi Calm Calm - N/A   Clear
5:53 AM 44.1 °F 42.1 °F 93% 30.12 in 9.0 mi Calm Calm - N/A   Clear
6:53 AM 44.1 °F 42.1 °F 93% 30.12 in 10.0 mi Calm Calm - N/A   Clear
7:53 AM 50.0 °F 46.9 °F 89% 30.14 in 10.0 mi Calm Calm - N/A   Clear
8:53 AM 61.0 °F 53.1 °F 75% 30.14 in 10.0 mi Calm Calm - N/A   Clear
9:53 AM 69.1 °F 53.1 °F 57% 30.15 in 10.0 mi Calm Calm - N/A   Clear
10:53 AM 73.9 °F 50.0 °F 43% 30.14 in 10.0 mi Variable 5.8 mph - N/A   Clear
11:53 AM 77.0 °F 46.9 °F 34% 30.13 in 10.0 mi Variable 5.8 mph - N/A   Clear
12:53 PM 77.0 °F 46.0 °F 33% 30.11 in 10.0 mi ENE 5.8 mph - N/A   Clear
1:53 PM 77.0 °F 44.1 °F 31% 30.07 in 10.0 mi SSE 3.5 mph - N/A   Clear
2:53 PM 80.1 °F 45.0 °F 29% 30.05 in 10.0 mi Variable 3.5 mph - N/A   Clear
3:53 PM 80.1 °F 45.0 °F 29% 30.01 in 10.0 mi Variable 4.6 mph - N/A   Clear
4:53 PM 79.0 °F 48.0 °F 34% 30.01 in 10.0 mi SSE 6.9 mph - N/A   Clear
5:53 PM 78.1 °F 46.9 °F 33% 30.00 in 10.0 mi SSE 8.1 mph - N/A   Clear
6:53 PM 75.9 °F 46.9 °F 36% 29.99 in 10.0 mi Calm Calm - N/A   Clear
7:53 PM 64.9 °F 53.1 °F 65% 29.98 in 10.0 mi Calm Calm - N/A   Clear
8:53 PM 60.1 °F 54.0 °F 80% 30.00 in 10.0 mi Calm Calm - N/A   Clear
9:53 PM 57.0 °F 51.1 °F 81% 30.01 in 10.0 mi Calm Calm - N/A   Clear
10:53 PM 55.9 °F 52.0 °F 87% 30.01 in 10.0 mi Calm Calm - N/A   Clear
11:53 PM 54.0 °F 51.1 °F 90% 30.02 in 10.0 mi Calm Calm - N/A   Clear